Regional Weather Roundup
Issued by NWS

Home | Current Version | Previous Version | Text Only | Print | Product List | Glossary On
Versions: 1 2 3 4 5 6 7 8 9 10 11 12 13 14 15 16 17 18 19 20 21 22 23 24 25 26 27 28 29 30 31 32 33 34 35 36 37 38 39 40 41 42 43 44 45 46 47 48 49 50
000
ASUS43 KFSD 302302
RWRSD

WEATHER ROUNDUP FOR SOUTH DAKOTA
NATIONAL WEATHER SERVICE SIOUX FALLS SD
600 PM CDT SUN AUG 30 2015

NOTE: "FAIR" INDICATES FEW OR NO CLOUDS BELOW 12,000 FEET WITH NO
SIGNIFICANT WEATHER AND/OR OBSTRUCTIONS TO VISIBILITY.


SDZ001>005-009-010-012>017-310000-
NORTHWEST AND NORTH CENTRAL SOUTH DAKOTA

CITY           SKY/WX    TMP DP  RH WIND       PRES   REMARKS
FAITH            N/A     94  55  26 SW7       29.71F
MOBRIDGE       SUNNY     94  62  34 S10       29.64S
$$

SDZ012>016-024>037-041>051-057-063-072>074-310000-
SOUTHWEST AND SOUTH CENTRAL SOUTH DAKOTA

CITY           SKY/WX    TMP DP  RH WIND       PRES   REMARKS
RAPID CTY ARPT MOSUNNY   93  59  31 NW12      29.73S
PIERRE         SUNNY     96  53  23 S16G25    29.68F HAZE
CUSTER         PTSUNNY   86  44  23 W5        29.95F
ELLSWORTH AFB  PTSUNNY   96  51  21 N14G20    29.73R
PHILIP         SUNNY     98  58  26 S8        29.67F HX  97
PINE RIDGE     SUNNY     97  44  16 S10       29.78F
WINNER         FAIR      94  52  24 S18G25    29.76F
$$

SDZ004>011-016>023-039-040-310000-
NORTHEAST SOUTH DAKOTA

CITY           SKY/WX    TMP DP  RH WIND       PRES   REMARKS
ABERDEEN       PTSUNNY   82  70  66 S17G24    29.74F
WATERTOWN      SUNNY     78  67  68 S16G24    29.83F
BROOKINGS      SUNNY     75  66  73 S16       29.90S
$$

SDZ017-020-022-023-036>040-048>070-310000-
SOUTHEAST SOUTH DAKOTA

CITY           SKY/WX    TMP DP  RH WIND       PRES   REMARKS
SIOUX FALLS    CLOUDY    74  64  71 S15       29.91S
HURON          MOSUNNY   82  69  64 S17G29    29.78F
CHAMBERLAIN    MOSUNNY   86  66  51 SE9       29.77S
MITCHELL       SUNNY     82  68  62 S21G29    29.82F
YANKTON        SUNNY     79  66  65 S14G20    29.88F
$$

ABBREVIATIONS USED IN REMARKS
   TC - TEMPERATURE IN CELSIUS
  WCI - WIND CHILL INDEX
   HX - HEAT INDEX
  VSB - VISIBILITY




USA.gov is the U.S. government's official web portal to all federal, state and local government web resources and services.